Regional Weather Roundup
Issued by NWS Bismarck, ND

Home | Current Version | Previous Version | Text Only | Print | Product List | Glossary On
Versions: 1 2 3 4 5 6 7 8 9 10 11 12 13 14 15 16 17 18 19 20 21 22 23 24 25 26 27 28 29 30 31 32 33 34 35 36 37 38 39 40 41 42 43 44 45 46 47 48 49 50
000
ASUS43 KBIS 212259
RWRBIS

NWR BROADCAST TEXT
NATIONAL WEATHER SERVICE BISMARCK ND
600 PM CDT TUE OCT 21 2014

NOTE: "FAIR" INDICATES FEW OR NO CLOUDS BELOW 12,000 FEET WITH NO
SIGNIFICANT WEATHER AND/OR OBSTRUCTIONS TO VISIBILITY.


CITY           SKY/WX    TMP DP  RH WIND       PRES   REMARKS
WILLISTON      CLEAR     74  42  31 S7        29.57F
MINOT          CLEAR     72  43  35 SE10      29.62F
MINOT AFB      NOT AVBL
BISMARCK       CLEAR     81  49  32 S21G28    29.66S
DICKINSON      CLEAR     75  47  36 S9        29.60S
GARRISON         N/A     72  48  42 SE6       29.62F
HETTINGER ARPT CLEAR     78  44  29 SE12      29.65S
JAMESTOWN      CLEAR     72  42  34 S17G28    29.77S
CARRINGTON     HAZE      72  45  37 SE24      29.74S VSB 1
OAKES            N/A     73  46  38 SE16G23   29.82S
$$

CITY           SKY/WX    TMP DP  RH WIND       PRES   REMARKS
GRAND FORKS    CLEAR     63  42  46 S23G32    29.84F
GRAND FORKS AF NOT AVBL
DEVILS LAKE    CLEAR     64  45  48 SE18G25   29.73S
FARGO          CLEAR     64  41  42 SE25G33   29.89S
CAVALIER       FAIR      63  41  45 SE20G29   29.81S
GRAFTON        FAIR      63  41  45 SE22G29   29.83S
GWINNER        CLEAR     68  45  42 SE23G30   29.87S
$$

CITY           SKY/WX    TMP DP  RH WIND       PRES   REMARKS
ABERDEEN       CLEAR     77  43  29 S18       29.82S
MOBRIDGE       CLEAR     79  44  28 S21       29.68F
RAPID CITY     CLEAR     77  45  32 S15       29.72F
GLASGOW        PTCLDY    72  42  34 NW8       29.57S
SIDNEY         CLEAR     72  48  43 CALM      29.59S
WOLF POINT     CLEAR     75  49  39 E3        29.55S
GLENDIVE       CLEAR     70  45  40 SW8       29.61R
MILES CITY     PTCLDY    73  39  29 W5        29.60S
BAKER          CLEAR     77  38  24 SW9       29.63R
$$

CITY           SKY/WX    TMP DP  RH WIND       PRES   REMARKS
BILLINGS       PTSUNNY   70  32  24 W18       29.70R
GREAT FALLS    LGT RAIN  45  44  97 SW14      29.81R
$$




USA.gov is the U.S. government's official web portal to all federal, state and local government web resources and services.